STARLINK-34594, 65088

Orbit data source: Space-Track

STARLINK-34594, 65088 is a payload satellite owned by SpaceX/Seattle (US) in LEO that was launched on Mon, 04 Aug 2025 UTC via an FALCON 9 launch vehicle from the Air Force Eastern Test Range (AFETR). Payload-class satellites include a variety of spacecraft equipped with specific instruments for various scientific and technological missions. These include communications satellites like Starlink; space stations such as the ISS; scientific satellites like the Hubble; Earth observation satellites from companies like Planet Labs, Umbra, and HawkEye 360; GPS; miniature CubeSats for education and research; and military/defense satellites.

Loading next visibility...
Identifier
65088, 2025-167L
Orbit
LEO
Country
Flag of USUS
Related business
Manufacturer
SpaceX/Seattle
Mission
Operational Commercial Communications
Bus & Motor
STARLINK V2MO, Unknown motor
Mass
575 kg wet, ~530 kg dry
Launch date (UTC)
2025-08-04 (9 months ago)
Launch vehicle
FALCON 9
Launch site
Air Force Eastern Test Range (AFETR)
Object type
Payload
Rocket body
Debris
Shape & HBR
Box + 2 Pan, 17.7 m
Radar Cross Section
36.964 m², Large (>1 m²)

Expand to show TLE details & history
Last TLE update: 10 hours ago

TLE from 10 hours ago
0 STARLINK-34594
1 65088U 25167L   26127.26380386  .00013972  00000-0  48301-3 0  9993
2 65088  53.1576 114.8828 0001250  63.9506 296.1624 15.30197673 42441
Epoch: 2026-05-07T06:19Z
TLE epoch observation values (Epoch: 2026-05-07T06:19:52.653Z)
Latitude
0.00003°
Longitude
154.80099°
Altitude
475.744 km
Speed
7.629 km/s
True Right ascension
07h 39m 31s
True Declination
0° 00' 00"
Sunlit
Object was in daylight at epoch
Visualization orbit readout
Latitude
Unknown
Longitude
Unknown
Altitude
Unknown
Speed
Unknown
Apparent Right ascension
Unknown
Apparent Declination
Unknown
Sunlit
N/A
Visualization observer readout
Local Sidereal Time
00:48:14
Azimuth
Unknown
Elevation
Unknown
Doppler factor
Unknown
Orbital elements
Apogee altitude
476.336 km
Perigee altitude
474.622 km
Semi-major axis
6,853.616 km
Eccentricity
0.00013
Inclination
53.1576°
RAAN
114.8828°
Arg. of periapsis
63.9506°
True anomaly
296.14954°
Mean anomaly
296.1624°
Eccentric anomaly
296.15597°
Mean motion
3.82528 °/min
Orbital period
94.11 mins
BSTAR
0.00048301
Loading maneuver chart data...
Computing Atmospheric mass density...
Loading historical data...
Loading historical data...
Loading historical data...
Loading historical data...
Loading historical data...
Loading historical data...
Loading historical data...

Documentation

Showing up to 5 results
|